This is the latest recevied weather packets stored in our database for station/object KC5L-7. If no packets are shown the sender has not sent any weather packets the latest 10 day(s).
| Time | Temp. | Humidity | Pressure | Rain* | Wind** | Luminosity | Snow |
|---|---|---|---|---|---|---|---|
| 1777680897 | 16.11° C | 81% | 1012.7 hPa | 0 mm | - | - | - |
| 1777680298 | 16.11° C | 81% | 1012.5 hPa | 0 mm | - | - | - |
| 1777679698 | 16.67° C | 81% | 1012.1 hPa | 0 mm | - | - | - |
| 1777679098 | 16.67° C | 81% | 1011.9 hPa | 0 mm | - | - | - |
| 1777678498 | 16.67° C | 81% | 1011.7 hPa | 0 mm | - | - | - |
| 1777677898 | 16.67° C | 80% | 1011.5 hPa | 0 mm | - | - | - |
| 1777677298 | 16.67° C | 80% | 1011.3 hPa | 0 mm | - | - | - |
| 1777676698 | 17.22° C | 81% | 1011 hPa | 0 mm | - | - | - |
| 1777676098 | 17.22° C | 81% | 1011 hPa | 0 mm | - | - | - |
| 1777675498 | 17.22° C | 81% | 1010.9 hPa | 0 mm | - | - | - |
| 1777674299 | 17.22° C | 84% | 1011 hPa | 0 mm | - | - | - |
| 1777673698 | 17.22° C | 84% | 1011.2 hPa | 0 mm | - | - | - |
| 1777673098 | 17.22° C | 85% | 1011.3 hPa | 0 mm | - | - | - |
| 1777672498 | 17.22° C | 85% | 1011.2 hPa | 0 mm | - | - | - |
| 1777671897 | 17.22° C | 85% | 1010.9 hPa | 0 mm | - | - | - |
| 1777670098 | 17.78° C | 85% | 1010.5 hPa | 0 mm | - | - | - |
| 1777669498 | 17.78° C | 87% | 1010.8 hPa | 0 mm | - | - | - |
| 1777668897 | 17.78° C | 87% | 1010.7 hPa | 0 mm | - | - | - |
| 1777668298 | 18.33° C | 87% | 1010.5 hPa | 0 mm | - | - | - |
| 1777667698 | 18.33° C | 88% | 1010.9 hPa | 0 mm | - | - | - |
| 1777667097 | 18.33° C | 88% | 1010.8 hPa | 0 mm | - | - | - |
| 1777666497 | 18.33° C | 85% | 1010.3 hPa | 0 mm | - | - | - |
| 1777665897 | 18.33° C | 84% | 1010.3 hPa | 0 mm | - | - | - |
| 1777665298 | 18.89° C | 84% | 1010.2 hPa | 0 mm | - | - | - |
| 1777664697 | 19.44° C | 84% | 1009.3 hPa | 0 mm | - | - | - |
* Rain latest hour (hover to see other rain measurements)
** Current wind speed in m/s (hover to see current wind gust speed)